Location: Fernhill
(41.0167°S, 175.6333°E)
Time: 22:43:15
(UTC+00:00)

Cosmos 2026 Rocket - Pass Details

Date: 08 November 2025
Orbit: 937 x 1000 km, 82.9° (Epoch: 04 December)

Event Time Altitude Azimuth Distance (km) Brightness Sun altitude
Exits shadow 09:38:26 20° 335° (NNW) 2,072 5.4 -23.5°
Maximum altitude 09:42:47 61° 260° (W) 1,115 4.4 -24.0°
Drops below altitude 10° 09:49:07 10° 179° (S) 2,786 7.1 -24.7°
Sets 09:51:44 0° 175° (S) 3,748 7.8 -24.9°
